Location: Prague
(50.0830°N, 14.4670°E)
Time: 02:44:20
(UTC+01:00)

Oscar 11 - Pass Details

Date: 02 December 2021
Orbit: 611 x 625 km, 97.6° (Epoch: 17 January)

Event Time Altitude Azimuth Distance (km) Brightness Sun altitude
Rises 06:56:47 0° 1° (N) 2,922 10.3 -6.9°
Reaches altitude 10° 06:59:30 10° 344° (NNW) 2,008 9.3 -6.5°
Maximum altitude 07:02:32 19° 300° (WNW) 1,504 8.4 -6.1°
Drops below altitude 10° 07:05:34 10° 255° (WSW) 1,993 9.2 -5.6°
Sets 07:08:15 0° 238° (WSW) 2,891 10.2 -5.3°
